Location: Bannatyne
(13.0833°N, 59.5333°W)
Time: 18:41:45
(UTC+00:00)

Vanguard 3 - Pass Details

Date: 02 February 2020
Orbit: 508 x 3263 km, 33.3° (Epoch: 25 February)

Event Time Altitude Azimuth Distance (km) Brightness Sun altitude
Rises 21:02:11 0° 287° (WNW) 6,475 12.6 12.3°
Reaches altitude 10° 21:06:47 10° 296° (WNW) 5,744 12.2 11.3°
Maximum altitude 21:23:51 39° 359° (N) 4,274 10.7 7.4°
Drops below altitude 10° 21:40:44 10° 63° (ENE) 5,684 10.8 3.5°
Sets 21:45:15 0° 71° (ENE) 6,403 11.0 2.4°
